N2KC KLAX-KSAN

Flight info

Callsign N2KC
Flight time 0h 39m
Altitude 13000
Route LAXX1 MZB DCT
Aircraft P180/L-SBDFGM3RWXY/LB1

Departure

Time 2026-05-08 03:23
Airport Los Angeles International Airport (KLAX)

Arrival

Time 2026-05-08 04:02
Airport San Diego International Airport (KSAN)
Time Latitude Longitude Altitude Speed Heading
2026-05-08 02:49 33.93379 -118.39914 118 ft 0 kts 23°
2026-05-08 03:16 33.93382 -118.39913 111 ft 2 kts 25°
2026-05-08 03:16 33.93397 -118.39867 118 ft 7 kts 79°
2026-05-08 03:17 33.93431 -118.39820 116 ft 9 kts 16°
2026-05-08 03:17 33.93463 -118.39743 120 ft 15 kts 83°
2026-05-08 03:17 33.93477 -118.39594 120 ft 21 kts 82°
2026-05-08 03:17 33.93498 -118.39403 120 ft 25 kts 83°
2026-05-08 03:18 33.93521 -118.39186 120 ft 27 kts 83°
2026-05-08 03:18 33.93544 -118.38954 120 ft 27 kts 83°
2026-05-08 03:18 33.93567 -118.38737 117 ft 26 kts 82°
2026-05-08 03:18 33.93589 -118.38515 120 ft 25 kts 82°
2026-05-08 03:19 33.93607 -118.38345 120 ft 16 kts 86°
2026-05-08 03:19 33.93639 -118.38281 120 ft 7 kts 26°
2026-05-08 03:19 33.93644 -118.38279 120 ft 0 kts 19°
2026-05-08 03:22 33.93652 -118.38278 117 ft 5 kts
2026-05-08 03:22 33.93713 -118.38294 118 ft 11 kts 327°
2026-05-08 03:22 33.93718 -118.38458 120 ft 55 kts 262°
2026-05-08 03:22 33.93642 -118.39196 142 ft 112 kts 264°
2026-05-08 03:23 33.93542 -118.40246 483 ft 145 kts 264°
2026-05-08 03:23 33.93411 -118.41547 1050 ft 165 kts 262°
2026-05-08 03:23 33.93267 -118.42976 1700 ft 177 kts 263°
2026-05-08 03:23 33.93075 -118.44465 2403 ft 183 kts 257°
2026-05-08 03:24 33.92409 -118.45776 3133 ft 188 kts 226°
2026-05-08 03:24 33.91306 -118.46658 3808 ft 194 kts 212°
2026-05-08 03:24 33.90077 -118.47361 4492 ft 200 kts 197°
2026-05-08 03:24 33.88669 -118.47168 5136 ft 211 kts 161°
2026-05-08 03:25 33.87520 -118.46069 5799 ft 216 kts 124°
2026-05-08 03:25 33.86980 -118.44388 6449 ft 217 kts 103°
2026-05-08 03:25 33.86614 -118.42625 7058 ft 218 kts 103°
2026-05-08 03:25 33.86235 -118.40861 7662 ft 218 kts 103°
2026-05-08 03:26 33.85845 -118.39095 8265 ft 218 kts 103°
2026-05-08 03:26 33.85451 -118.37328 8853 ft 219 kts 103°
2026-05-08 03:26 33.85045 -118.35481 9000 ft 240 kts 103°
2026-05-08 03:26 33.84596 -118.33469 9009 ft 258 kts 103°
2026-05-08 03:27 33.84119 -118.31334 9007 ft 270 kts 103°
2026-05-08 03:27 33.83625 -118.29124 9010 ft 277 kts 103°
2026-05-08 03:27 33.83123 -118.26862 9012 ft 282 kts 103°
2026-05-08 03:27 33.82612 -118.24573 9004 ft 285 kts 104°
2026-05-08 03:28 33.82094 -118.22258 9003 ft 287 kts 104°
2026-05-08 03:28 33.81575 -118.19935 9005 ft 288 kts 104°
2026-05-08 03:28 33.81053 -118.17608 8996 ft 289 kts 103°
2026-05-08 03:28 33.80531 -118.15269 8999 ft 289 kts 103°
2026-05-08 03:29 33.80007 -118.12933 9000 ft 290 kts 104°
2026-05-08 03:29 33.79480 -118.10599 8987 ft 290 kts 104°
2026-05-08 03:29 33.78952 -118.08262 8984 ft 290 kts 105°
2026-05-08 03:29 33.78020 -118.06128 8970 ft 292 kts 132°
2026-05-08 03:30 33.74305 -118.04990 8997 ft 288 kts 196°
2026-05-08 03:30 33.70527 -118.06516 9001 ft 288 kts 194°
2026-05-08 03:31 33.66527 -118.06918 9000 ft 289 kts 184°
2026-05-08 03:31 33.62541 -118.07493 8997 ft 289 kts 188°
2026-05-08 03:32 33.60537 -118.07648 8993 ft 289 kts 177°
2026-05-08 03:32 33.58660 -118.06878 8995 ft 289 kts 145°
2026-05-08 03:32 33.57231 -118.05189 8998 ft 289 kts 129°
2026-05-08 03:32 33.55894 -118.03391 8999 ft 289 kts 134°
2026-05-08 03:33 33.54901 -118.02320 8999 ft 290 kts 139°
2026-05-08 03:33 33.53322 -118.00809 8999 ft 290 kts 140°
2026-05-08 03:33 33.51315 -117.98687 8999 ft 290 kts 136°
2026-05-08 03:33 33.49830 -117.97049 9000 ft 290 kts 137°
2026-05-08 03:34 33.48298 -117.95467 9002 ft 291 kts 139°
2026-05-08 03:34 33.46763 -117.93898 9002 ft 291 kts 138°
2026-05-08 03:34 33.45759 -117.92832 9001 ft 291 kts 137°
2026-05-08 03:34 33.44257 -117.91212 9001 ft 291 kts 137°
2026-05-08 03:35 33.42736 -117.89621 9000 ft 291 kts 138°
2026-05-08 03:35 33.41203 -117.88041 8999 ft 290 kts 137°
2026-05-08 03:35 33.39691 -117.86447 9000 ft 290 kts 137°
2026-05-08 03:35 33.38187 -117.84840 8999 ft 290 kts 137°
2026-05-08 03:36 33.36669 -117.83257 8999 ft 290 kts 137°
2026-05-08 03:36 33.35143 -117.81680 8998 ft 289 kts 137°
2026-05-08 03:36 33.33636 -117.80088 9000 ft 289 kts 137°
2026-05-08 03:36 33.32128 -117.78494 9000 ft 289 kts 137°
2026-05-08 03:37 33.30608 -117.76918 9001 ft 289 kts 137°
2026-05-08 03:37 33.29094 -117.75334 9001 ft 289 kts 136°
2026-05-08 03:37 33.27886 -117.73447 9003 ft 286 kts 117°
2026-05-08 03:37 33.27005 -117.71325 9006 ft 285 kts 114°
2026-05-08 03:38 33.26085 -117.69223 9005 ft 286 kts 117°
2026-05-08 03:38 33.25092 -117.67160 9006 ft 286 kts 118°
2026-05-08 03:38 33.24129 -117.65085 9000 ft 286 kts 116°
2026-05-08 03:38 33.23201 -117.62986 9000 ft 285 kts 116°
2026-05-08 03:39 33.22258 -117.60903 9001 ft 285 kts 117°
2026-05-08 03:39 33.21288 -117.58835 9002 ft 285 kts 117°
2026-05-08 03:39 33.20335 -117.56764 9001 ft 285 kts 116°
2026-05-08 03:39 33.19396 -117.54677 9001 ft 285 kts 116°
2026-05-08 03:40 33.18445 -117.52604 9001 ft 285 kts 117°
2026-05-08 03:40 33.17482 -117.50533 9001 ft 285 kts 117°
2026-05-08 03:40 33.16534 -117.48458 9002 ft 285 kts 116°
2026-05-08 03:40 33.15588 -117.46379 9005 ft 285 kts 116°
2026-05-08 03:41 33.14638 -117.44327 9005 ft 286 kts 117°
2026-05-08 03:41 33.13578 -117.42318 9000 ft 288 kts 128°
2026-05-08 03:41 33.11946 -117.40924 9003 ft 292 kts 154°
2026-05-08 03:41 33.10039 -117.40087 9003 ft 293 kts 160°
2026-05-08 03:42 33.08160 -117.39220 8870 ft 285 kts 155°
2026-05-08 03:42 33.06383 -117.38182 8149 ft 281 kts 152°
2026-05-08 03:42 33.04666 -117.37147 7449 ft 272 kts 155°
2026-05-08 03:42 33.02960 -117.36230 6772 ft 267 kts 157°
2026-05-08 03:43 33.01282 -117.35326 6077 ft 263 kts 157°
2026-05-08 03:43 32.99640 -117.34406 5376 ft 260 kts 156°
2026-05-08 03:43 32.98014 -117.33494 4725 ft 257 kts 157°
2026-05-08 03:43 32.96489 -117.32653 4671 ft 229 kts 156°
2026-05-08 03:44 32.95084 -117.31875 4540 ft 210 kts 157°
2026-05-08 03:44 32.93838 -117.31179 4592 ft 189 kts 157°
2026-05-08 03:44 32.92688 -117.30544 4585 ft 176 kts 158°
2026-05-08 03:44 32.91547 -117.29921 5121 ft 175 kts 158°
2026-05-08 03:45 32.90431 -117.29301 5888 ft 186 kts 157°
2026-05-08 03:45 32.89135 -117.28587 6036 ft 227 kts 157°
2026-05-08 03:45 32.87601 -117.27743 6042 ft 256 kts 156°
2026-05-08 03:45 32.85931 -117.26813 6045 ft 272 kts 156°
2026-05-08 03:46 32.84180 -117.25844 6046 ft 283 kts 156°
2026-05-08 03:46 32.82379 -117.24847 6048 ft 288 kts 156°
2026-05-08 03:46 32.80555 -117.23836 6046 ft 291 kts 156°
2026-05-08 03:46 32.78714 -117.22818 6048 ft 292 kts 156°
2026-05-08 03:47 32.76865 -117.21803 6047 ft 293 kts 156°
2026-05-08 03:47 32.75016 -117.20785 6047 ft 294 kts 156°
2026-05-08 03:47 32.73163 -117.19753 6047 ft 294 kts 156°
2026-05-08 03:47 32.71307 -117.18731 6027 ft 294 kts 156°
2026-05-08 03:48 32.69446 -117.17716 6024 ft 294 kts 156°
2026-05-08 03:48 32.67684 -117.16483 6022 ft 296 kts 139°
2026-05-08 03:48 32.66674 -117.14484 6023 ft 278 kts 102°
2026-05-08 03:48 32.66808 -117.12306 6029 ft 259 kts 65°
2026-05-08 03:49 32.67900 -117.10736 6023 ft 242 kts 28°
2026-05-08 03:49 32.69457 -117.10232 6009 ft 230 kts
2026-05-08 03:49 32.71042 -117.10115 6013 ft 228 kts
2026-05-08 03:49 32.72602 -117.09791 6012 ft 228 kts 10°
2026-05-08 03:50 32.74096 -117.09139 6016 ft 231 kts 22°
2026-05-08 03:50 32.75480 -117.08159 6017 ft 232 kts 28°
2026-05-08 03:50 32.76728 -117.06942 6010 ft 238 kts 49°
2026-05-08 03:50 32.77320 -117.05084 6023 ft 247 kts 79°
2026-05-08 03:51 32.77113 -117.03057 6029 ft 251 kts 105°
2026-05-08 03:51 32.76586 -117.01078 6039 ft 251 kts 105°
2026-05-08 03:51 32.76088 -116.99086 6041 ft 251 kts 104°
2026-05-08 03:51 32.75431 -116.97170 6031 ft 253 kts 125°
2026-05-08 03:52 32.74074 -116.95862 6032 ft 252 kts 154°
2026-05-08 03:52 32.72434 -116.95421 6029 ft 241 kts 184°
2026-05-08 03:52 32.70864 -116.95848 5892 ft 226 kts 209°
2026-05-08 03:52 32.69613 -116.97013 5053 ft 236 kts 235°
2026-05-08 03:53 32.68890 -116.98761 4102 ft 238 kts 259°
2026-05-08 03:53 32.68894 -117.00664 3573 ft 223 kts 284°
2026-05-08 03:53 32.69357 -117.02467 3551 ft 239 kts 289°
2026-05-08 03:53 32.69799 -117.04293 3537 ft 216 kts 287°
2026-05-08 03:54 32.70183 -117.05923 3509 ft 195 kts 288°
2026-05-08 03:54 32.70547 -117.07402 3507 ft 179 kts 288°
2026-05-08 03:54 32.70994 -117.08719 3510 ft 167 kts 310°
2026-05-08 03:54 32.71990 -117.09592 4225 ft 178 kts 332°
2026-05-08 03:55 32.73217 -117.09963 5131 ft 194 kts 356°
2026-05-08 03:55 32.74630 -117.09484 5216 ft 233 kts 26°
2026-05-08 03:55 32.75978 -117.08241 5230 ft 255 kts 36°
2026-05-08 03:55 32.77165 -117.06607 5224 ft 273 kts 59°
2026-05-08 03:56 32.77484 -117.04343 5227 ft 289 kts 94°
2026-05-08 03:56 32.76918 -117.02033 5234 ft 294 kts 109°
2026-05-08 03:56 32.76224 -116.99764 5238 ft 283 kts 107°
2026-05-08 03:56 32.75638 -116.97636 5172 ft 262 kts 112°
2026-05-08 03:57 32.74482 -116.96071 4879 ft 250 kts 150°
2026-05-08 03:57 32.72895 -116.95413 4571 ft 237 kts 176°
2026-05-08 03:57 32.71324 -116.95615 4272 ft 222 kts 202°
2026-05-08 03:57 32.70011 -116.96535 3979 ft 219 kts 225°
2026-05-08 03:58 32.69128 -116.97979 3717 ft 216 kts 249°
2026-05-08 03:58 32.68807 -116.99702 3434 ft 214 kts 271°
2026-05-08 03:58 32.69067 -117.01430 3154 ft 214 kts 288°
2026-05-08 03:58 32.69491 -117.03060 2883 ft 198 kts 287°
2026-05-08 03:59 32.69860 -117.04572 2634 ft 185 kts 287°
2026-05-08 03:59 32.70208 -117.05999 2394 ft 179 kts 287°
2026-05-08 03:59 32.70552 -117.07433 2162 ft 171 kts 286°
2026-05-08 03:59 32.70850 -117.08652 1949 ft 135 kts 285°
2026-05-08 04:00 32.71105 -117.09714 1739 ft 141 kts 286°
2026-05-08 04:00 32.71355 -117.10706 1535 ft 115 kts 285°
2026-05-08 04:00 32.71576 -117.11607 1363 ft 112 kts 286°
2026-05-08 04:00 32.71786 -117.12485 1185 ft 109 kts 285°
2026-05-08 04:01 32.71995 -117.13345 1021 ft 108 kts 285°
2026-05-08 04:01 32.72206 -117.14210 819 ft 110 kts 284°
2026-05-08 04:01 32.72422 -117.15078 665 ft 108 kts 284°
2026-05-08 04:01 32.72620 -117.15945 454 ft 112 kts 285°
2026-05-08 04:02 32.72842 -117.16839 241 ft 110 kts 283°
2026-05-08 04:02 32.73048 -117.17698 87 ft 108 kts 285°
2026-05-08 04:02 32.73240 -117.18492 27 ft 86 kts 286°
2026-05-08 04:02 32.73337 -117.18881 19 ft 15 kts 287°
2026-05-08 04:03 32.73372 -117.19020 19 ft 25 kts 287°
2026-05-08 04:03 32.73456 -117.18910 16 ft 28 kts 107°
2026-05-08 04:03 32.73400 -117.18669 25 ft 31 kts 107°
2026-05-08 04:04 32.73343 -117.18442 29 ft 27 kts 107°
2026-05-08 04:04 32.73316 -117.18218 25 ft 28 kts 90°
2026-05-08 04:04 32.73310 -117.17990 27 ft 28 kts 94°
2026-05-08 04:04 32.73306 -117.17901 27 ft 0 kts 89°
2026-05-08 04:06 32.73306 -117.17900 27 ft 1 kts 89°